When you browse on this site, cookies collect data to enhance your experience and personalize the content and advertising you see.
Visit our Privacy Policy to learn more. By continuing to use the site, you agree to this use of cookies and data.
  • In Austria
  • List of Countries
  • For 7 days
  • Water Temperature
  • Satellite Maps
  • Weather Map
  • News
  • Weather Widgets
  • user-avatar
    Login

    Hourly Weather Rakowo

    Today, 10 December, Monday

    Time Temperature Precipitation Wind Pressure Humidity
    00:00 +5°C° 0.4 mm 8 mps 746 mmHg 77%
    01:00 +4°C° 0 mm 7 mps 746 mmHg 76%
    02:00 +4°C° 0.1 mm 7 mps 747 mmHg 76%
    03:00 +4°C° 0.1 mm 7 mps 748 mmHg 75%
    04:00 +3°C° 0.1 mm 7 mps 748 mmHg 74%
    05:00 +3°C° 0 mm 7 mps 749 mmHg 75%
    06:00 +2°C° 0 mm 7 mps 750 mmHg 76%
    07:00 +2°C° 0 mm 6 mps 750 mmHg 77%
    08:00 +2°C° 0 mm 7 mps 751 mmHg 75%
    09:00 +3°C° 0 mm 7 mps 751 mmHg 73%
    10:00 +3°C° 0 mm 7 mps 752 mmHg 71%
    11:00 +3°C° 0.1 mm 7 mps 752 mmHg 69%
    12:00 +3°C° 0.1 mm 7 mps 752 mmHg 66%
    13:00 +4°C° 0.1 mm 8 mps 752 mmHg 63%
    14:00 +3°C° 0 mm 7 mps 752 mmHg 65%
    15:00 +3°C° 0 mm 6 mps 752 mmHg 67%
    16:00 +2°C° 0 mm 5 mps 753 mmHg 68%
    17:00 +2°C° 0 mm 5 mps 752 mmHg 70%
    18:00 +2°C° 0 mm 6 mps 752 mmHg 72%
    19:00 +1°C° 0 mm 6 mps 752 mmHg 74%
    20:00 +1°C° 0 mm 5 mps 752 mmHg 75%
    21:00 +1°C° 0 mm 5 mps 752 mmHg 77%
    22:00 +1°C° 0 mm 5 mps 752 mmHg 78%
    23:00 +1°C° 0.1 mm 5 mps 752 mmHg 78%

    Tomorrow, 11 December, Tuesday

    Time Temperature Precipitation Wind Pressure Humidity
    00:00 +1°C° 0.1 mm 5 mps 752 mmHg 78%
    01:00 +1°C° 0.1 mm 5 mps 752 mmHg 77%
    02:00 +1°C° 0.2 mm 5 mps 752 mmHg 77%
    03:00 +1°C° 0.2 mm 5 mps 752 mmHg 77%
    04:00 +1°C° 0.2 mm 5 mps 752 mmHg 77%
    05:00 +2°C° 0.4 mm 5 mps 752 mmHg 79%
    06:00 +2°C° 0.4 mm 5 mps 752 mmHg 80%
    07:00 +2°C° 0.4 mm 5 mps 752 mmHg 82%
    08:00 +2°C° 0.2 mm 5 mps 752 mmHg 82%
    09:00 +2°C° 0.2 mm 5 mps 753 mmHg 82%
    10:00 +2°C° 0.2 mm 5 mps 753 mmHg 82%
    11:00 +2°C° 0.2 mm 5 mps 753 mmHg 80%
    12:00 +2°C° 0.2 mm 5 mps 754 mmHg 79%
    13:00 +2°C° 0.2 mm 5 mps 754 mmHg 78%
    14:00 +2°C° 0.3 mm 5 mps 755 mmHg 79%
    15:00 +2°C° 0.3 mm 5 mps 755 mmHg 81%
    16:00 +2°C° 0.3 mm 5 mps 756 mmHg 82%
    17:00 +1°C° 0.2 mm 5 mps 756 mmHg 84%
    18:00 +1°C° 0.2 mm 4 mps 757 mmHg 85%
    19:00 +1°C° 0.2 mm 4 mps 757 mmHg 87%
    20:00 +1°C° 0 mm 4 mps 758 mmHg 88%
    21:00 +1°C° 0 mm 3 mps 758 mmHg 90%
    22:00 +1°C° 0 mm 3 mps 759 mmHg 91%
    23:00 0°C° 0 mm 3 mps 759 mmHg 92%

    Day after tomorrow, 12 December, Wednesday

    Time Temperature Precipitation Wind Pressure Humidity
    00:00 0°C° 0 mm 3 mps 760 mmHg 92%
    01:00 +1°C° 0 mm 2 mps 760 mmHg 93%
    02:00 -1°C° 0 mm 2 mps 760 mmHg 93%
    03:00 -1°C° 0 mm 2 mps 760 mmHg 94%
    04:00 -1°C° 0 mm 2 mps 761 mmHg 94%
    05:00 -1°C° 0 mm 2 mps 761 mmHg 94%
    06:00 +1°C° 0 mm 1 mps 761 mmHg 94%
    07:00 +1°C° 0 mm 1 mps 762 mmHg 94%
    08:00 +1°C° 0 mm 1 mps 762 mmHg 92%
    09:00 +2°C° 0 mm 1 mps 762 mmHg 90%
    10:00 +2°C° 0 mm 1 mps 762 mmHg 87%
    11:00 +3°C° 0 mm 1 mps 762 mmHg 85%
    12:00 +3°C° 0 mm 1 mps 762 mmHg 82%
    13:00 +4°C° 0 mm 1 mps 762 mmHg 79%
    14:00 +3°C° 0 mm 1 mps 762 mmHg 83%
    15:00 +3°C° 0 mm 1 mps 762 mmHg 86%
    16:00 +2°C° 0 mm 1 mps 762 mmHg 90%
    17:00 +2°C° 0.3 mm 1 mps 763 mmHg 90%
    18:00 +2°C° 0.3 mm 1 mps 763 mmHg 91%
    19:00 +2°C° 0.3 mm 1 mps 763 mmHg 91%
    20:00 +2°C° 0.1 mm 1 mps 763 mmHg 92%
    21:00 +1°C° 0.1 mm 1 mps 763 mmHg 93%
    22:00 +1°C° 0.1 mm 1 mps 763 mmHg 94%
    23:00 0°C° 0 mm 1 mps 763 mmHg 94%

    13 December, Thursday

    Time Temperature Precipitation Wind Pressure Humidity
    00:00 0°C° 0 mm 1 mps 764 mmHg 94%
    01:00 0°C° 0 mm 1 mps 764 mmHg 94%
    02:00 0°C° 0 mm 1 mps 763 mmHg 94%
    03:00 0°C° 0 mm 1 mps 763 mmHg 94%
    04:00 -1°C° 0 mm 1 mps 763 mmHg 93%
    05:00 -1°C° 0 mm 1 mps 763 mmHg 93%
    06:00 -1°C° 0 mm 1 mps 763 mmHg 93%
    07:00 -1°C° 0 mm 1 mps 763 mmHg 93%
    08:00 -2°C° 0 mm 2 mps 763 mmHg 91%
    09:00 -2°C° 0 mm 2 mps 763 mmHg 89%
    10:00 -1°C° 0 mm 2 mps 764 mmHg 87%
    11:00 -1°C° 0 mm 2 mps 763 mmHg 85%
    12:00 +1°C° 0 mm 2 mps 763 mmHg 83%
    13:00 +1°C° 0 mm 2 mps 763 mmHg 81%
    14:00 +1°C° 0 mm 2 mps 763 mmHg 84%
    15:00 -1°C° 0 mm 2 mps 763 mmHg 87%
    16:00 +1°C° 0 mm 1 mps 763 mmHg 89%
    17:00 -1°C° 0 mm 2 mps 763 mmHg 89%
    18:00 -1°C° 0 mm 2 mps 763 mmHg 89%
    19:00 -1°C° 0 mm 2 mps 763 mmHg 89%
    20:00 +1°C° 0 mm 1 mps 763 mmHg 89%
    21:00 +1°C° 0 mm 1 mps 763 mmHg 89%
    22:00 +1°C° 0 mm 1 mps 764 mmHg 89%
    23:00 +1°C° 0 mm 1 mps 764 mmHg 89%

    14 December, Friday

    Time Temperature Precipitation Wind Pressure Humidity
    00:00 +1°C° 0 mm 1 mps 764 mmHg 89%
    01:00 +1°C° 0 mm 1 mps 764 mmHg 89%
    02:00 +1°C° 0 mm 1 mps 764 mmHg 89%
    03:00 +1°C° 0 mm 1 mps 764 mmHg 89%
    04:00 +1°C° 0 mm 1 mps 764 mmHg 89%
    05:00 +1°C° 0 mm 1 mps 764 mmHg 89%
    06:00 +1°C° 0 mm 1 mps 765 mmHg 89%
    07:00 -1°C° 0 mm 2 mps 765 mmHg 88%
    08:00 -1°C° 0 mm 2 mps 765 mmHg 87%
    09:00 -1°C° 0 mm 2 mps 766 mmHg 85%
    10:00 -1°C° 0 mm 2 mps 766 mmHg 83%
    11:00 +1°C° 0 mm 2 mps 766 mmHg 81%
    12:00 +1°C° 0 mm 2 mps 766 mmHg 79%
    13:00 0°C° 0 mm 3 mps 767 mmHg 76%
    14:00 +1°C° 0 mm 2 mps 767 mmHg 80%
    15:00 -1°C° 0 mm 2 mps 767 mmHg 85%
    16:00 -2°C° 0 mm 2 mps 767 mmHg 89%
    17:00 -2°C° 0 mm 2 mps 768 mmHg 89%
    18:00 -2°C° 0 mm 2 mps 768 mmHg 90%
    19:00 -2°C° 0 mm 2 mps 768 mmHg 91%
    20:00 -2°C° 0 mm 2 mps 769 mmHg 91%
    21:00 -2°C° 0 mm 2 mps 769 mmHg 91%
    22:00 -2°C° 0 mm 2 mps 769 mmHg 91%
    23:00 -2°C° 0 mm 2 mps 769 mmHg 91%

    15 December, Saturday

    Time Temperature Precipitation Wind Pressure Humidity
    00:00 -2°C° 0 mm 2 mps 770 mmHg 91%
    01:00 -2°C° 0 mm 2 mps 770 mmHg 90%
    02:00 -2°C° 0 mm 2 mps 770 mmHg 91%
    03:00 -2°C° 0 mm 2 mps 770 mmHg 91%
    04:00 0°C° 0 mm 1 mps 770 mmHg 92%
    05:00 -2°C° 0 mm 2 mps 771 mmHg 92%
    06:00 -2°C° 0 mm 2 mps 771 mmHg 92%
    07:00 -2°C° 0 mm 2 mps 771 mmHg 92%
    08:00 -2°C° 0 mm 2 mps 771 mmHg 90%
    09:00 -2°C° 0 mm 2 mps 771 mmHg 89%
    10:00 -1°C° 0 mm 2 mps 772 mmHg 87%
    11:00 -1°C° 0 mm 2 mps 772 mmHg 85%
    12:00 +1°C° 0 mm 2 mps 772 mmHg 82%
    13:00 +1°C° 0 mm 2 mps 772 mmHg 79%
    14:00 -1°C° 0 mm 2 mps 772 mmHg 83%
    15:00 -1°C° 0 mm 2 mps 772 mmHg 86%
    16:00 -2°C° 0 mm 2 mps 772 mmHg 89%
    17:00 -2°C° 0 mm 2 mps 772 mmHg 90%
    18:00 -2°C° 0 mm 3 mps 772 mmHg 90%
    19:00 -2°C° 0 mm 3 mps 772 mmHg 90%
    20:00 -2°C° 0 mm 3 mps 772 mmHg 90%
    21:00 -2°C° 0 mm 3 mps 772 mmHg 90%
    22:00 -2°C° 0 mm 3 mps 772 mmHg 90%
    23:00 -3°C° 0 mm 4 mps 772 mmHg 90%
    Show more